Waarnemingen

Advertentie
Mijn weer
Chievres, België (6432): temperatuur & dauwpunt: 16.10.2017 11:00:00 - 22.10.2017 11:00:00 (CEST)Chievres, België (6432): windsnelheid & windstoten: 16.10.2017 11:00:00 - 22.10.2017 11:00:00 (CEST)Chievres, België (6432): windrichting: 16.10.2017 11:00:00 - 22.10.2017 11:00:00 (CEST)Chievres, België (6432): luchtdruk: 16.10.2017 11:00:00 - 22.10.2017 11:00:00 (CEST)Chievres, België (6432): zicht: 16.10.2017 11:00:00 - 22.10.2017 11:00:00 (CEST)
Datum & Tijd tt [°C] td [°C] ff [km/u] ff [kn] fx [km/u] fx [kn] dd ppp [hPa] vv [km]
22.10.2017 11:00:00 10,8 9,1 21 11 - - WZW 1012,8 10
22.10.2017 10:00:00 9,8 9,1 24 13 40 21 ZW 1012,5 10
22.10.2017 09:00:00 9,3 8,6 26 14 43 23 ZW 1011,7 10
22.10.2017 08:00:00 9,1 8,2 34 18 - - ZW 1011,1 10
22.10.2017 07:00:00 9,1 8,2 34 18 50 27 ZW 1010,7 3,5
22.10.2017 06:00:00 9,1 8,1 31 17 47 25 ZW 1010,2 10
22.10.2017 05:00:00 9,1 8,3 34 18 - - ZW 1010,2 4,3
22.10.2017 04:00:00 9,1 8,1 31 17 58 31 ZZW 1010,1 6
22.10.2017 03:00:00 9,2 7,8 39 21 58 31 ZZW 1010,2 7
22.10.2017 02:00:00 10,4 6,3 35 19 - - ZZW 1010,2 10
22.10.2017 01:00:00 10,3 6,7 35 19 50 27 ZZW 1010,5 10
22.10.2017 00:00:00 10,6 6,9 34 18 43 23 ZZW 1010,8 10
21.10.2017 23:00:00 10,5 7,5 24 13 - - ZZW 1011,2 10
21.10.2017 22:00:00 11,1 7,2 28 15 47 25 ZZW 1011,0 10
21.10.2017 21:00:00 12,3 7,1 29 16 43 23 ZW 1010,8 20
21.10.2017 20:00:00 12,5 7,0 21 11 - - ZW 1010,7 10
21.10.2017 19:00:00 11,5 8,8 11 6 50 27 ZZW 1010,2 10
21.10.2017 18:00:00 15,3 7,6 29 16 43 23 ZZW 1010,2 4,7
21.10.2017 17:00:00 15,8 7,8 29 16 - - ZW 1010,2 10
21.10.2017 16:00:00 16,7 7,7 34 18 61 33 ZW 1010,2 10
21.10.2017 15:00:00 16,7 7,6 42 23 61 33 ZW 1010,3 10
21.10.2017 14:00:00 16,4 9,0 37 20 - - ZW 1010,7 10
21.10.2017 13:00:00 15,5 9,8 29 16 50 27 ZW 1011,0 10
21.10.2017 12:00:00 15,6 11,6 31 17 47 25 ZW 1010,7 10
21.10.2017 11:00:00 15,4 13,0 29 16 - - ZW 1010,3 10
21.10.2017 10:00:00 14,3 13,6 24 13 43 23 ZW 1010,2 10
21.10.2017 09:00:00 14,1 13,0 31 17 50 27 ZZW 1009,6 10
21.10.2017 08:00:00 13,5 12,6 26 14 - - ZZW 1009,5 9
21.10.2017 07:00:00 12,6 12,1 22 12 40 21 Z 1009,7 10
21.10.2017 06:00:00 12,6 9,9 21 11 29 16 Z 1009,6 10
21.10.2017 05:00:00 11,7 8,8 24 13 - - Z 1009,7 10
21.10.2017 04:00:00 11,3 8,3 21 11 25 14 Z 1010,7 10
21.10.2017 03:00:00 10,6 8,1 18 10 25 14 Z 1011,7 10
21.10.2017 02:00:00 11,3 8,2 15 8 - - Z 1012,1 10
21.10.2017 01:00:00 11,8 8,1 16 9 25 14 Z 1012,6 10
21.10.2017 00:00:00 11,0 7,3 15 8 18 10 Z 1013,0 10
20.10.2017 23:00:00 9,5 7,2 11 6 - - Z 1013,6 10
20.10.2017 22:00:00 10,6 7,3 16 9 29 16 ZZW 1013,6 10
20.10.2017 21:00:00 11,8 8,2 21 11 25 14 ZZW 1013,6 10
20.10.2017 20:00:00 11,6 8,0 15 8 - - ZZW 1013,7 10
20.10.2017 19:00:00 13,1 8,1 16 9 32 18 ZW 1013,2 10
20.10.2017 18:00:00 13,8 8,8 21 11 36 19 WZW 1012,6 10
20.10.2017 17:00:00 14,5 8,2 29 16 - - ZW 1012,1 10
20.10.2017 16:00:00 14,1 9,2 35 19 50 27 ZW 1011,5 10
20.10.2017 15:00:00 12,8 9,4 35 19 54 29 ZW 1011,7 10
20.10.2017 14:00:00 13,6 9,3 34 18 - - ZW 1010,8 10
20.10.2017 13:00:00 13,0 9,1 35 19 54 29 ZW 1010,7 10
20.10.2017 12:00:00 13,0 9,5 35 19 50 27 ZW 1010,0 10
20.10.2017 11:00:00 12,3 9,1 34 18 - - ZW 1009,6 10
20.10.2017 10:00:00 12,3 9,6 35 19 50 27 ZZW 1008,7 10
20.10.2017 09:00:00 11,8 9,6 26 14 43 23 ZW 1008,0 10
20.10.2017 08:00:00 12,9 11,5 26 14 - - ZZW 1006,8 10
20.10.2017 07:00:00 13,8 12,4 29 16 50 27 ZW 1006,3 10
20.10.2017 06:00:00 14,1 13,2 34 18 47 25 ZZW 1005,6 10
20.10.2017 05:00:00 15,0 12,7 31 17 - - Z 1005,8 4,7
20.10.2017 04:00:00 15,9 12,2 24 13 36 19 Z 1006,2 10
20.10.2017 03:00:00 15,5 12,2 22 12 40 21 Z 1006,5 10
20.10.2017 02:00:00 16,7 12,6 26 14 - - ZZW 1007,0 10
20.10.2017 01:00:00 16,4 12,7 18 10 25 14 ZZW 1007,1 10
20.10.2017 00:00:00 17,1 13,0 18 10 32 18 ZZW 1006,7 10
19.10.2017 23:00:00 17,5 13,9 15 8 - - Z 1007,0 10
19.10.2017 22:00:00 17,3 14,5 16 9 32 18 ZZW 1007,1 10
19.10.2017 21:00:00 18,5 13,3 11 6 18 10 Z 1007,0 10
19.10.2017 20:00:00 18,5 13,6 11 6 - - Z 1007,5 10
19.10.2017 19:00:00 20,2 13,0 22 12 32 18 Z 1007,5 10
19.10.2017 18:00:00 20,3 13,2 21 11 36 19 Z 1007,2 10
19.10.2017 17:00:00 21,2 13,2 24 13 - - Z 1007,1 10
19.10.2017 16:00:00 22,0 12,8 22 12 36 19 Z 1007,2 10
19.10.2017 15:00:00 21,5 13,1 24 13 32 18 Z 1007,3 10
19.10.2017 14:00:00 20,4 12,8 24 13 - - Z 1008,2 10
19.10.2017 13:00:00 17,9 12,6 15 8 22 12 ZZO 1009,5 10
19.10.2017 12:00:00 16,5 12,2 15 8 25 14 ZZO 1009,7 10
19.10.2017 11:00:00 15,8 11,3 18 10 - - Z 1009,8 10
19.10.2017 10:00:00 14,0 10,5 11 6 22 12 ZZO 1010,2 10
19.10.2017 09:00:00 12,2 10,4 5 3 11 6 ZZO 1010,2 10
19.10.2017 08:00:00 11,6 9,9 8 4 - - ZO 1010,1 10
19.10.2017 07:00:00 11,3 9,7 5 3 11 6 ZO 1010,3 10
19.10.2017 06:00:00 11,0 9,6 4 2 7 4 - 1010,3 10
19.10.2017 05:00:00 11,7 10,3 5 3 - - O 1010,7 10
19.10.2017 04:00:00 11,3 10,6 5 3 7 4 OZO 1011,3 10
19.10.2017 03:00:00 10,4 9,4 4 2 7 4 - 1011,8 7
19.10.2017 02:00:00 11,7 10,4 2 1 - - - 1012,1 10
19.10.2017 01:00:00 12,7 10,7 4 2 14 8 - 1012,2 10
19.10.2017 00:00:00 13,1 11,6 5 3 7 4 ZO 1012,2 10
18.10.2017 23:00:00 14,6 12,2 8 4 - - ZZO 1012,6 10
18.10.2017 22:00:00 15,9 12,8 11 6 18 10 ZZO 1012,2 10
18.10.2017 21:00:00 16,6 13,5 9 5 11 6 ZZO 1012,2 10
18.10.2017 20:00:00 15,8 13,9 8 4 - - ZO 1012,2 10
18.10.2017 19:00:00 16,8 13,9 8 4 11 6 Z 1012,0 10
18.10.2017 18:00:00 19,5 14,6 9 5 18 10 ZW 1012,0 10
18.10.2017 17:00:00 20,2 14,4 9 5 - - ZW 1011,8 10
18.10.2017 16:00:00 20,3 14,0 16 9 22 12 ZZW 1012,0 10
18.10.2017 15:00:00 20,2 13,9 15 8 25 14 ZZW 1012,1 10
18.10.2017 14:00:00 19,4 13,5 22 12 - - ZZW 1012,7 10
18.10.2017 13:00:00 18,4 13,0 15 8 22 12 ZZW 1013,0 10
18.10.2017 12:00:00 17,0 12,4 13 7 18 10 ZZW 1013,1 10
18.10.2017 11:00:00 15,1 12,0 13 7 - - Z 1013,5 7
18.10.2017 10:00:00 11,8 11,0 4 2 4 2 - 1013,5 10
18.10.2017 09:00:00 7,5 7,5 2 1 4 2 - 1013,7 2,3
18.10.2017 08:00:00 7,1 7,1 2 1 - - - 1013,5 0,2
18.10.2017 07:00:00 7,5 7,5 2 1 4 2 - 1013,7 -
18.10.2017 06:00:00 8,3 8,3 4 2 4 2 - 1013,7 0,1
18.10.2017 05:00:00 8,7 8,7 2 1 - - - 1014,2 -
18.10.2017 04:00:00 9,0 8,9 2 1 7 4 - 1014,6 0,1
18.10.2017 03:00:00 10,1 10,1 5 3 11 6 ONO 1015,1 0,1
18.10.2017 02:00:00 11,0 10,8 5 3 - - NNO 1015,2 0,1
18.10.2017 01:00:00 10,4 10,2 8 4 7 4 NNO 1015,7 4,4
18.10.2017 00:00:00 11,1 10,9 8 4 7 4 NO 1016,3 6
17.10.2017 23:00:00 13,0 12,3 8 4 - - O 1017,0 9
17.10.2017 22:00:00 13,3 12,3 8 4 14 8 O 1017,2 10
17.10.2017 21:00:00 13,1 12,1 11 6 11 6 ONO 1017,7 10
17.10.2017 20:00:00 14,5 13,2 8 4 - - NNO 1018,2 10
17.10.2017 19:00:00 15,6 14,0 5 3 7 4 NO 1018,3 10
17.10.2017 18:00:00 16,1 14,1 8 4 14 8 ONO 1018,6 10
17.10.2017 17:00:00 16,7 13,8 8 4 - - NO 1019,2 10
17.10.2017 16:00:00 17,1 13,3 4 2 7 4 - 1019,7 10
17.10.2017 15:00:00 17,3 13,1 2 1 4 2 - 1020,6 10
17.10.2017 14:00:00 16,6 13,2 4 2 - - - 1021,3 10
17.10.2017 13:00:00 16,8 13,1 5 3 11 6 ZZW 1022,0 10
17.10.2017 12:00:00 15,2 13,4 5 3 7 4 ZW 1022,6 9
17.10.2017 11:00:00 14,1 13,4 8 4 - - ZW 1022,7 9
17.10.2017 10:00:00 12,3 12,2 8 4 7 4 Z 1022,8 6
17.10.2017 09:00:00 11,6 11,6 8 4 7 4 Z 1022,7 6
17.10.2017 08:00:00 10,8 10,7 8 4 - - Z 1022,7 4,4
17.10.2017 07:00:00 11,6 11,4 9 5 11 6 Z 1022,6 7
17.10.2017 06:00:00 11,8 11,5 8 4 7 4 Z 1022,5 5
17.10.2017 05:00:00 12,3 12,0 5 3 - - ZZW 1022,3 7
17.10.2017 04:00:00 12,6 12,1 5 3 14 8 ZZW 1022,2 7
17.10.2017 03:00:00 15,0 13,3 11 6 14 8 WZW 1022,0 10
17.10.2017 02:00:00 15,4 13,9 9 5 - - WZW 1021,7 10
17.10.2017 01:00:00 14,9 13,4 8 4 14 8 ZW 1021,7 10
17.10.2017 00:00:00 16,1 13,8 11 6 14 8 ZW 1021,2 10
16.10.2017 23:00:00 16,8 14,0 13 7 - - ZZW 1020,8 10
16.10.2017 22:00:00 17,0 14,2 13 7 18 10 Z 1020,6 10
16.10.2017 21:00:00 17,3 14,5 15 8 18 10 Z 1020,3 10
16.10.2017 20:00:00 18,2 14,2 13 7 - - Z 1020,2 10
16.10.2017 19:00:00 19,9 14,4 16 9 29 16 Z 1019,7 10
16.10.2017 18:00:00 21,7 15,1 8 4 25 14 Z 1019,2 10
16.10.2017 17:00:00 22,7 14,3 15 8 - - Z 1018,8 10
16.10.2017 16:00:00 24,2 14,2 24 13 32 18 Z 1019,3 10
16.10.2017 15:00:00 24,2 14,4 24 13 36 19 Z 1019,6 10
16.10.2017 14:00:00 24,1 15,1 21 11 - - Z 1020,2 10
16.10.2017 13:00:00 23,0 15,6 18 10 29 16 Z 1020,8 10
16.10.2017 12:00:00 21,2 14,7 18 10 25 14 Z 1021,3 10
16.10.2017 11:00:00 19,5 14,9 13 7 - - Z 1021,6 10

tt = temperatuur
td = dauwpunt
ff = windsnelheid
fx = windstoten
dd = windrichting
ppp = luchtdruk
vv = zicht

Weerstations in de omgeving